Location: Unspecified
(43.1763°N, 79.4719°W)
Time: 12:40:00
(UTC-04:00)

Resurs 1-4 Rocket - Visible Passes

Search period start: 19 June 2018 00:00
Search period end: 29 June 2018 00:00
Orbit: 800 x 813 km, 98.5° (Epoch: 18 June)

Date Brightness Start Highest point End Pass type
(mag) Time Alt. Az. Time Alt. Az. Time Alt. Az.
19 Jun 2.9 02:50:30 10° NNE 02:55:36 44° E 02:58:23 24° SSE visible
19 Jun 3.4 04:30:50 10° N 04:35:11 26° WNW 04:39:28 10° WSW visible
20 Jun 3.6 02:26:23 10° NE 02:30:52 27° E 02:33:30 18° SE visible
20 Jun 2.8 04:05:50 10° N 04:10:48 41° WNW 04:14:35 16° SW visible
21 Jun 4.2 02:02:45 10° NE 02:06:02 16° E 02:08:37 12° ESE visible
21 Jun 2.2 03:41:02 10° N 03:46:20 67° WNW 03:49:41 23° SSW visible
22 Jun 2.2 03:16:25 10° NNE 03:21:47 76° ESE 03:24:48 27° S visible
22 Jun 4.0 04:57:46 10° NNW 05:00:58 16° WNW 05:04:09 10° W visible
23 Jun 2.8 02:52:01 10° NNE 02:57:08 46° E 02:59:54 25° SSE visible
23 Jun 3.5 04:32:24 10° N 04:36:41 25° WNW 04:40:58 10° WSW visible
24 Jun 3.6 02:27:52 10° NE 02:32:24 28° E 02:35:01 19° SE visible
24 Jun 2.8 04:07:22 10° N 04:12:19 40° WNW 04:16:05 16° SW visible
25 Jun 4.2 02:04:11 10° NE 02:07:35 17° E 02:10:07 13° ESE visible
25 Jun 2.2 03:42:34 10° N 03:47:52 65° WNW 03:51:11 23° SSW visible
26 Jun 2.1 03:17:57 10° NNE 03:23:19 78° ESE 03:26:17 27° S visible
26 Jun 4.0 04:59:23 10° NNW 05:02:28 16° WNW 05:05:33 10° W visible
27 Jun 2.8 02:53:31 10° NNE 02:58:40 47° E 03:01:23 26° SSE visible
27 Jun 3.5 04:33:58 10° N 04:38:12 25° WNW 04:42:24 10° WSW visible
28 Jun 3.5 02:29:21 10° NE 02:33:57 29° E 02:36:29 20° SE visible
28 Jun 2.9 04:08:56 10° N 04:13:50 38° WNW 04:17:33 16° SW visible
